When you browse on this site, cookies collect data to enhance your experience and personalize the content and advertising you see.
Visit our Privacy Policy to learn more. By continuing to use the site, you agree to this use of cookies and data.
  • In Hungary
  • List of Countries
  • For 7 days
  • Water Temperature
  • Weather Map
  • News
  • Weather Widgets
  • user-avatar
    Login

    Hourly Weather Malaya Kosiha

    Today, 19 January, Sunday

    Time Temperature Precipitation Wind Pressure Humidity
    00:00 -2°C° 0 mm 3 mps 748 mmHg 84%
    01:00 -2°C° 0 mm 3 mps 749 mmHg 86%
    02:00 -2°C° 0 mm 3 mps 749 mmHg 91%
    03:00 -2°C° 0 mm 3 mps 749 mmHg 91%
    04:00 -2°C° 0 mm 3 mps 750 mmHg 92%
    05:00 -2°C° 0 mm 3 mps 750 mmHg 92%
    06:00 -2°C° 0 mm 3 mps 750 mmHg 91%
    07:00 -1°C° 0 mm 3 mps 750 mmHg 90%
    08:00 -2°C° 0 mm 4 mps 751 mmHg 90%
    09:00 -2°C° 0 mm 4 mps 751 mmHg 88%
    10:00 -1°C° 0 mm 4 mps 751 mmHg 86%
    11:00 -1°C° 0 mm 4 mps 751 mmHg 84%
    12:00 -1°C° 0 mm 4 mps 751 mmHg 82%
    13:00 -1°C° 0 mm 4 mps 751 mmHg 80%
    14:00 0°C° 0 mm 4 mps 752 mmHg 80%
    15:00 -1°C° 0 mm 4 mps 752 mmHg 81%
    16:00 -1°C° 0 mm 4 mps 751 mmHg 82%
    17:00 -1°C° 0 mm 4 mps 751 mmHg 84%
    18:00 -1°C° 0 mm 4 mps 751 mmHg 86%
    19:00 -1°C° 0 mm 4 mps 751 mmHg 88%
    20:00 -1°C° 0 mm 5 mps 751 mmHg 91%
    21:00 -1°C° 0.1 mm 5 mps 751 mmHg 92%
    22:00 -1°C° 0.1 mm 5 mps 751 mmHg 93%
    23:00 -1°C° 0.1 mm 5 mps 751 mmHg 94%

    Tomorrow, 20 January, Monday

    Time Temperature Precipitation Wind Pressure Humidity
    00:00 0°C° 0 mm 5 mps 751 mmHg 92%
    01:00 0°C° 0 mm 5 mps 751 mmHg 89%
    02:00 0°C° 0 mm 5 mps 751 mmHg 87%
    03:00 0°C° 0 mm 5 mps 751 mmHg 89%
    04:00 0°C° 0 mm 5 mps 751 mmHg 92%
    05:00 -1°C° 0 mm 5 mps 751 mmHg 94%
    06:00 -1°C° 0.1 mm 5 mps 751 mmHg 95%
    07:00 -1°C° 0.1 mm 5 mps 751 mmHg 96%
    08:00 -1°C° 0.1 mm 5 mps 751 mmHg 96%
    09:00 -1°C° 0.1 mm 5 mps 751 mmHg 96%
    10:00 -1°C° 0.1 mm 5 mps 751 mmHg 96%
    11:00 -1°C° 0.1 mm 5 mps 751 mmHg 96%
    12:00 -1°C° 0.1 mm 5 mps 751 mmHg 96%
    13:00 -1°C° 0.1 mm 5 mps 751 mmHg 96%
    14:00 -1°C° 0.1 mm 5 mps 751 mmHg 96%
    15:00 -1°C° 0 mm 5 mps 750 mmHg 95%
    16:00 -1°C° 0 mm 5 mps 750 mmHg 94%
    17:00 -1°C° 0 mm 5 mps 749 mmHg 94%
    18:00 -1°C° 0 mm 5 mps 749 mmHg 90%
    19:00 -1°C° 0 mm 5 mps 749 mmHg 86%
    20:00 -1°C° 0 mm 5 mps 748 mmHg 82%
    21:00 -1°C° 0 mm 5 mps 748 mmHg 82%
    22:00 -1°C° 0 mm 5 mps 747 mmHg 82%
    23:00 -2°C° 0 mm 5 mps 747 mmHg 82%

    Day after tomorrow, 21 January, Tuesday

    Time Temperature Precipitation Wind Pressure Humidity
    00:00 -2°C° 0 mm 5 mps 746 mmHg 85%
    01:00 -2°C° 0 mm 5 mps 745 mmHg 87%
    02:00 -2°C° 0 mm 5 mps 745 mmHg 90%
    03:00 -2°C° 0.4 mm 5 mps 744 mmHg 90%
    04:00 -2°C° 0.4 mm 6 mps 742 mmHg 91%
    05:00 -2°C° 0.4 mm 6 mps 741 mmHg 91%
    06:00 -1°C° 0.3 mm 6 mps 741 mmHg 90%
    07:00 -1°C° 0.3 mm 7 mps 740 mmHg 89%
    08:00 0°C° 0.3 mm 7 mps 739 mmHg 87%
    09:00 +2°C° 0.1 mm 7 mps 739 mmHg 87%
    10:00 +2°C° 0.1 mm 7 mps 738 mmHg 87%
    11:00 +3°C° 0.1 mm 6 mps 738 mmHg 86%
    12:00 +3°C° 0.1 mm 6 mps 737 mmHg 86%
    13:00 +3°C° 0.1 mm 6 mps 737 mmHg 85%
    14:00 +3°C° 0.1 mm 6 mps 737 mmHg 85%
    15:00 +3°C° 0.2 mm 5 mps 736 mmHg 86%
    16:00 +2°C° 0.2 mm 5 mps 735 mmHg 88%
    17:00 +3°C° 0.2 mm 4 mps 735 mmHg 90%
    18:00 +3°C° 0.6 mm 4 mps 735 mmHg 90%
    19:00 +1°C° 0.6 mm 4 mps 734 mmHg 90%
    20:00 +1°C° 0.6 mm 4 mps 734 mmHg 90%
    21:00 0°C° 0.1 mm 5 mps 734 mmHg 87%
    22:00 0°C° 0.1 mm 5 mps 734 mmHg 84%
    23:00 -2°C° 0.1 mm 6 mps 734 mmHg 80%

    22 January, Wednesday

    Time Temperature Precipitation Wind Pressure Humidity
    00:00 -2°C° 0 mm 6 mps 734 mmHg 79%
    01:00 -3°C° 0 mm 6 mps 735 mmHg 78%
    02:00 -3°C° 0 mm 6 mps 735 mmHg 77%
    03:00 -4°C° 0 mm 6 mps 734 mmHg 77%
    04:00 -4°C° 0 mm 6 mps 734 mmHg 77%
    05:00 -4°C° 0 mm 6 mps 733 mmHg 77%
    06:00 -4°C° 0 mm 6 mps 733 mmHg 79%
    07:00 -4°C° 0 mm 5 mps 733 mmHg 81%
    08:00 -4°C° 0 mm 5 mps 732 mmHg 83%
    09:00 -4°C° 0.4 mm 5 mps 732 mmHg 81%
    10:00 -4°C° 0.4 mm 5 mps 732 mmHg 79%
    11:00 -3°C° 0.4 mm 6 mps 732 mmHg 77%
    12:00 -2°C° 0 mm 5 mps 732 mmHg 75%
    13:00 -4°C° 0 mm 5 mps 732 mmHg 72%
    14:00 -4°C° 0 mm 5 mps 732 mmHg 70%
    15:00 -4°C° 0 mm 5 mps 732 mmHg 73%
    16:00 -5°C° 0 mm 5 mps 732 mmHg 75%
    17:00 -5°C° 0 mm 5 mps 732 mmHg 78%
    18:00 -5°C° 0 mm 5 mps 733 mmHg 79%
    19:00 -5°C° 0 mm 5 mps 733 mmHg 79%
    20:00 -6°C° 0 mm 5 mps 733 mmHg 79%
    21:00 -6°C° 0.1 mm 5 mps 734 mmHg 78%
    22:00 -6°C° 0.1 mm 5 mps 734 mmHg 76%
    23:00 -6°C° 0.1 mm 6 mps 735 mmHg 74%

    23 January, Thursday

    Time Temperature Precipitation Wind Pressure Humidity
    00:00 -6°C° 0 mm 6 mps 735 mmHg 71%
    01:00 -8°C° 0 mm 6 mps 736 mmHg 69%
    02:00 -9°C° 0 mm 6 mps 736 mmHg 67%
    03:00 -9°C° 0 mm 6 mps 737 mmHg 66%
    04:00 -10°C° 0 mm 6 mps 737 mmHg 64%
    05:00 -10°C° 0 mm 6 mps 738 mmHg 63%
    06:00 -10°C° 0 mm 6 mps 738 mmHg 64%
    07:00 -10°C° 0 mm 6 mps 738 mmHg 65%
    08:00 -10°C° 0 mm 5 mps 739 mmHg 66%
    09:00 -10°C° 0.1 mm 6 mps 739 mmHg 62%
    10:00 -9°C° 0.1 mm 6 mps 740 mmHg 59%
    11:00 -9°C° 0.1 mm 6 mps 740 mmHg 55%
    12:00 -9°C° 0 mm 6 mps 740 mmHg 55%
    13:00 -9°C° 0 mm 6 mps 741 mmHg 56%
    14:00 -9°C° 0 mm 6 mps 741 mmHg 56%
    15:00 -8°C° 0 mm 5 mps 742 mmHg 59%
    16:00 -10°C° 0 mm 5 mps 742 mmHg 61%
    17:00 -9°C° 0 mm 4 mps 743 mmHg 64%
    18:00 -9°C° 0 mm 4 mps 743 mmHg 66%
    19:00 -9°C° 0 mm 3 mps 743 mmHg 68%
    20:00 -9°C° 0 mm 3 mps 744 mmHg 70%
    21:00 -9°C° 0 mm 3 mps 743 mmHg 72%
    22:00 -9°C° 0 mm 3 mps 743 mmHg 73%
    23:00 -9°C° 0 mm 3 mps 743 mmHg 74%

    24 January, Friday

    Time Temperature Precipitation Wind Pressure Humidity
    00:00 -9°C° 0 mm 3 mps 743 mmHg 71%
    01:00 -9°C° 0 mm 3 mps 742 mmHg 68%
    02:00 -8°C° 0 mm 3 mps 741 mmHg 65%
    03:00 -8°C° 0.2 mm 3 mps 740 mmHg 74%
    04:00 -8°C° 0.2 mm 4 mps 739 mmHg 84%
    05:00 -8°C° 0.2 mm 4 mps 738 mmHg 93%
    06:00 -7°C° 0.4 mm 4 mps 737 mmHg 93%
    07:00 -7°C° 0.4 mm 5 mps 736 mmHg 94%
    08:00 -6°C° 0.4 mm 5 mps 735 mmHg 94%
    09:00 -5°C° 0.2 mm 5 mps 734 mmHg 94%
    10:00 -3°C° 0.2 mm 4 mps 734 mmHg 94%
    11:00 -1°C° 0.2 mm 4 mps 733 mmHg 93%
    12:00 -1°C° 0.1 mm 5 mps 733 mmHg 88%
    13:00 -2°C° 0.1 mm 6 mps 733 mmHg 84%
    14:00 -2°C° 0.1 mm 6 mps 733 mmHg 79%
    15:00 -3°C° 0 mm 6 mps 733 mmHg 79%
    16:00 -3°C° 0 mm 6 mps 734 mmHg 79%
    17:00 -4°C° 0 mm 6 mps 735 mmHg 80%
    18:00 -4°C° 0 mm 6 mps 735 mmHg 77%
    19:00 -5°C° 0 mm 6 mps 735 mmHg 75%
    20:00 -5°C° 0 mm 6 mps 736 mmHg 72%
    21:00 -5°C° 0 mm 5 mps 736 mmHg 76%
    22:00 -5°C° 0 mm 5 mps 737 mmHg 79%
    23:00 -5°C° 0 mm 5 mps 737 mmHg 82%
    Show more